Airfield :
LOGIN :

Register | Disclaimer

   EN    FR    IT 

 










Legend :    VFR   Marginal VFR   IFR   Intensive IFR   Very Intensive IFR
Visi :
Ceiling :
>= 8 km
>= 3000ft
5 to 8 km
1000 to 3000 ft
1500m to 5 km
500 to 1000 ft
800 to 1500m
200 to 500 ft
< 800m
< 200 ft
Symbols :   Thunderstorms  Fog  Heavy snow  Heavy precipitations  Wind > 20 kt
SIGMETs :     Misc.  Thunderstorms  Icing  Turbulence  Mountain Waves  Volcanic Ashes






- Airport Elevation : 726 ft
- IATA code : DIJ


LFSD - Dijon

CURRENT METAR :
  • 011200Z AUTO 04012KT 9999 OVC027 06/01 Q1021

EXPIRED METARs :
  • 011130Z AUTO 04012KT 010V070 9999 OVC032 06/01 Q1021
  • 011100Z AUTO 02015KT 9999 BKN028 BKN035 07/01 Q1021
  • 011030Z AUTO 04014KT 9999 FEW040 07/02 Q1022
  • 011000Z AUTO 03011KT 9999 OVC038 07/02 Q1022
  • 010930Z AUTO 03013KT 360V060 9999 FEW038 07/02 Q1022

Expired Forecast.



MET'MAP, your aeronautical weather chart ! - Copyright ORBIFLY December 2007 - Disclaimer

ORBIFLY MET'MAP TEAM :

Programming & Development : Alexandra Zaïnal
Original concept : Baudouin d'Aumeries
Technical & hardware support : Manuel Goepfert
Assistance : Marc-Olivier Méhu




SOURCES & CREDITS :

   NOAA